星链-33971 (STARLINK-33971)

导读 | 豆包AI

STARLINK-33971是美国于2025年5月13日发射的星链卫星,隶属于SpaceX公司的星链星座项目。星链项目旨在构建全球卫星互联网星座,为全球偏远地区、海洋等网络覆盖薄弱区域提供高速互联网服务,该卫星入轨后将承担星座组网任务,进一步扩充星链星座的服务覆盖能力与容量。

基本信息
目录编号:
63932
目录名称:
STARLINK-33971
国际标识:
2025-098G
轨道中心:
EARTH
卫星名称:
星链-33971
卫星全名:
星链-33971 (STARLINK-33971)
卫星状态:
在轨 (已飞行305 天)
发射日期:
2025-05-13 UTC
国别 :
美国 (US)
星等 :
--
轨道信息
数据来源 国际轨道数据 AOE轨道数据
星历时间 2026-03-14T22:17:51+0800
7小时前
查看轨道信息
2026-03-14T02:00:00+0800
1天前
查看轨道信息
半长轴 6950.161km 6950.192km
偏心率 0.0002368 0.000367
轨道倾角 69.999° 69.994°
近地点辐角 268.231° 292.540°
升交点赤经 262.234° 264.354°
平近点角 91.858° 186.997°
近地点 570.378km 569.504km
远地点 573.67km 574.606km
周期 96.106分钟 96.107分钟
每日圈数 14.983405 14.983306
详细信息
固有亮度:
5
最大亮度:
2.5
卫星平台:
Starlink V1.0
覆盖范围:
全球
运营商:
太空探索技术公司
运营商所在国:
美国
制造商(研发单位):
太空探索技术公司
制造商所在国:
美国
使用方式:
暂无
卫星简介
Starlink 计划是 SpaceX 推出的全球卫星互联网项目,通过发射低轨道卫星,为全球尤其是偏远地区提供高速、低延迟的互联网服务。自 2019 年起,Starlink 已部署数千颗卫星,旨在缩小全球数字鸿沟,推动互联网普及。该项目还为军事、航空等行业提供通信支持,带来广泛经济效益。
2D轨道图
3D轨道图
轨道高度分析图
轨道倾角分析图
轨道综合分析图
查看轨道综合分析图